TimeEDT,TemperatureF,Dew PointF,Humidity,Sea Level PressureIn,VisibilityMPH,Wind Direction,Wind SpeedMPH,Gust SpeedMPH,PrecipitationIn,Events,Conditions,WindDirDegrees,DateUTC
12:15 AM,50.0,41.0,71,30.27,10.0,Calm,Calm,-,N/A,,Overcast,0,2013-04-04 04:15:00
12:35 AM,50.0,35.6,58,30.26,10.0,East,3.5,-,N/A,,Scattered Clouds,100,2013-04-04 04:35:00
12:55 AM,50.0,35.6,58,30.26,10.0,East,3.5,-,N/A,,Clear,100,2013-04-04 04:55:00
1:15 AM,50.0,35.6,58,30.26,10.0,Calm,Calm,-,N/A,,Mostly Cloudy,0,2013-04-04 05:15:00
1:35 AM,50.0,35.6,58,30.26,10.0,ENE,3.5,-,N/A,,Mostly Cloudy,70,2013-04-04 05:35:00
1:55 AM,50.0,37.4,62,30.26,10.0,East,3.5,-,N/A,,Mostly Cloudy,80,2013-04-04 05:55:00
2:15 AM,50.0,39.2,66,30.25,10.0,ENE,4.6,-,N/A,,Mostly Cloudy,70,2013-04-04 06:15:00
2:35 AM,50.0,37.4,62,30.25,10.0,East,3.5,-,N/A,,Mostly Cloudy,90,2013-04-04 06:35:00
2:55 AM,50.0,37.4,62,30.24,10.0,ENE,4.6,-,N/A,,Scattered Clouds,60,2013-04-04 06:55:00
3:15 AM,50.0,37.4,62,30.23,10.0,ENE,5.8,-,N/A,,Clear,60,2013-04-04 07:15:00
3:55 AM,50.0,39.2,66,30.22,10.0,ENE,5.8,-,N/A,,Mostly Cloudy,60,2013-04-04 07:55:00
4:15 AM,50.0,41.0,71,30.22,10.0,ENE,5.8,-,N/A,,Scattered Clouds,70,2013-04-04 08:15:00
4:35 AM,50.0,41.0,71,30.22,10.0,ENE,5.8,-,N/A,,Scattered Clouds,60,2013-04-04 08:35:00
4:55 AM,50.0,41.0,71,30.22,10.0,ENE,6.9,-,N/A,,Mostly Cloudy,70,2013-04-04 08:55:00
5:15 AM,50.0,41.0,71,30.23,10.0,NE,8.1,-,N/A,,Overcast,50,2013-04-04 09:15:00
5:35 AM,50.0,41.0,71,30.23,10.0,ENE,6.9,-,N/A,,Overcast,70,2013-04-04 09:35:00
5:55 AM,50.0,41.0,71,30.23,10.0,ENE,5.8,-,N/A,,Overcast,60,2013-04-04 09:55:00
6:15 AM,50.0,41.0,71,30.22,10.0,NE,6.9,-,N/A,,Overcast,50,2013-04-04 10:15:00
6:35 AM,50.0,41.0,71,30.23,10.0,NE,8.1,-,N/A,,Scattered Clouds,40,2013-04-04 10:35:00
6:55 AM,48.2,41.0,76,30.23,10.0,NE,9.2,-,N/A,,Mostly Cloudy,50,2013-04-04 10:55:00
7:15 AM,50.0,39.2,66,30.23,10.0,NE,9.2,16.1,N/A,,Overcast,50,2013-04-04 11:15:00
8:15 AM,48.2,37.4,66,30.25,10.0,ENE,15.0,18.4,N/A,,Overcast,60,2013-04-04 12:15:00
8:35 AM,46.4,37.4,71,30.25,10.0,NE,13.8,19.6,N/A,Rain,Light Rain,50,2013-04-04 12:35:00
9:15 AM,46.4,39.2,76,30.25,10.0,NE,12.7,19.6,N/A,Rain,Light Rain,50,2013-04-04 13:15:00
9:35 AM,44.6,41.0,87,30.25,7.0,ENE,10.4,17.3,0.01,Rain,Light Rain,60,2013-04-04 13:35:00
9:55 AM,44.6,42.8,93,30.25,5.0,ENE,10.4,-,0.04,Rain,Rain,60,2013-04-04 13:55:00
10:15 AM,44.6,42.8,93,30.24,7.0,NE,12.7,-,0.01,Rain,Light Rain,40,2013-04-04 14:15:00
10:55 AM,42.8,42.8,100,30.20,5.0,NE,20.7,24.2,0.04,Rain,Light Rain,50,2013-04-04 14:55:00
11:15 AM,42.8,42.8,100,30.20,5.0,NE,17.3,24.2,N/A,Rain,Light Rain,50,2013-04-04 15:15:00
11:35 AM,42.8,42.8,100,30.19,5.0,ENE,17.3,20.7,0.01,Rain,Light Rain,60,2013-04-04 15:35:00
11:55 AM,42.8,42.8,100,30.18,3.0,ENE,12.7,20.7,0.03,Rain,Rain,60,2013-04-04 15:55:00
12:15 PM,42.8,42.8,100,30.18,4.0,NE,13.8,19.6,0.02,Rain,Rain,50,2013-04-04 16:15:00
12:35 PM,44.6,44.6,100,30.16,3.0,NE,16.1,21.9,0.06,Rain,Heavy Rain,50,2013-04-04 16:35:00
12:55 PM,44.6,44.6,100,30.15,4.0,NE,11.5,24.2,0.13,Rain,Rain,40,2013-04-04 16:55:00
1:15 PM,44.6,44.6,100,30.13,3.0,NE,17.3,24.2,0.07,Rain,Rain,50,2013-04-04 17:15:00
1:35 PM,44.6,44.6,100,30.11,4.0,NE,19.6,24.2,0.15,Rain,Rain,50,2013-04-04 17:35:00
1:55 PM,44.6,44.6,100,30.12,10.0,ENE,12.7,19.6,0.16,Rain,Light Rain,60,2013-04-04 17:55:00
2:15 PM,46.4,46.4,100,30.10,5.0,NE,15.0,20.7,0.01,Rain,Light Rain,50,2013-04-04 18:15:00
2:35 PM,46.4,46.4,100,30.08,5.0,ENE,16.1,23.0,0.03,Rain,Light Rain,60,2013-04-04 18:35:00
2:55 PM,46.4,46.4,100,30.05,3.0,ENE,13.8,-,0.04,Rain,Light Rain,60,2013-04-04 18:55:00
3:15 PM,46.4,46.4,100,30.06,5.0,ENE,12.7,20.7,N/A,,Overcast,60,2013-04-04 19:15:00
3:35 PM,46.4,46.4,100,30.04,3.0,ENE,15.0,21.9,N/A,Rain,Rain,60,2013-04-04 19:35:00
3:55 PM,46.4,46.4,100,30.03,5.0,NE,15.0,20.7,0.03,Rain,Light Rain,50,2013-04-04 19:55:00
4:15 PM,46.4,46.4,100,30.01,5.0,ENE,12.7,17.3,0.02,Rain,Rain,60,2013-04-04 20:15:00
4:35 PM,46.4,46.4,100,30.00,5.0,NE,13.8,-,0.05,Rain,Light Rain,40,2013-04-04 20:35:00
5:15 PM,48.2,48.2,100,29.96,5.0,NE,16.1,21.9,0.01,Rain,Light Rain,50,2013-04-04 21:15:00
5:35 PM,48.2,48.2,100,29.96,5.0,NE,17.3,23.0,0.01,Rain,Light Rain,50,2013-04-04 21:35:00
5:55 PM,48.2,48.2,100,29.93,4.0,NE,16.1,-,0.03,Rain,Light Rain,50,2013-04-04 21:55:00
6:15 PM,-9999,-9999,N/A,29.93,5.0,NNE,12.7,-,0.04,Rain,Light Rain,30,2013-04-04 22:15:00
6:35 PM,-9999,-9999,N/A,29.93,7.0,NE,15.0,18.4,0.05,Rain,Light Rain,50,2013-04-04 22:35:00
6:55 PM,-9999,-9999,N/A,29.92,5.0,NE,16.1,21.9,0.07,Rain,Rain,40,2013-04-04 22:55:00
7:15 PM,48.2,48.2,100,29.91,5.0,NE,12.7,-,0.02,Rain,Light Rain,40,2013-04-04 23:15:00
7:35 PM,-9999,-9999,N/A,29.89,5.0,NE,13.8,21.9,0.03,Rain,Light Rain,40,2013-04-04 23:35:00
7:55 PM,46.4,46.4,100,29.88,10.0,NE,16.1,-,0.03,,Overcast,40,2013-04-04 23:55:00
8:15 PM,46.4,46.4,100,29.89,10.0,NNE,10.4,17.3,N/A,,Overcast,30,2013-04-05 00:15:00
8:35 PM,46.4,46.4,100,29.89,10.0,NNW,6.9,16.1,N/A,Rain,Light Rain,330,2013-04-05 00:35:00
8:55 PM,46.4,46.4,100,29.89,10.0,North,6.9,-,N/A,,Drizzle,350,2013-04-05 00:55:00
9:15 PM,46.4,46.4,100,29.90,10.0,North,5.8,-,N/A,,Overcast,350,2013-04-05 01:15:00
9:35 PM,46.4,46.4,100,29.89,10.0,North,10.4,-,N/A,,Overcast,10,2013-04-05 01:35:00
9:55 PM,46.4,46.4,100,29.89,10.0,North,9.2,-,N/A,,Light Drizzle,10,2013-04-05 01:55:00
10:15 PM,44.6,44.6,100,29.89,10.0,North,8.1,-,N/A,,Overcast,360,2013-04-05 02:15:00
10:35 PM,44.6,44.6,100,29.90,7.0,North,10.4,-,N/A,,Overcast,350,2013-04-05 02:35:00
10:55 PM,44.6,44.6,100,29.89,7.0,NNW,8.1,-,N/A,,Overcast,340,2013-04-05 02:55:00
11:15 PM,44.6,44.6,100,29.89,7.0,North,6.9,-,N/A,,Overcast,350,2013-04-05 03:15:00
11:55 PM,42.8,42.8,100,29.89,5.0,NNW,9.2,-,N/A,,Overcast,340,2013-04-05 03:55:00